Weather History for PAKP - August, 2013

Change the Weather History Date:

Saturday, August 17, 2013

  Actual Average Record
Temperature  
Mean Temperature 45 °F -  
Max Temperature 48 °F 49 °F 75 °F (2004)
Min Temperature 42 °F 36 °F 30 °F (2001)
Degree Days  
Heating Degree Days 20    
Moisture  
Dew Point 39 °F    
Average Humidity 79    
Maximum Humidity 87    
Minimum Humidity 71    
Precipitation  
Precipitation 0.00 in - - ()
Sea Level Pressure  
Sea Level Pressure 29.67 in    
Wind  
Wind Speed 10 mph (NE)    
Max Wind Speed 15 mph    
Max Gust Speed 22 mph    
Visibility 9 miles    
Events      
Averages and records for this station are not official NWS values.
T = Trace of Precipitation, MM = Missing Value Source: NWS Daily Summary

Daily Weather History Graph

Daily Weather History Graph

Search for Another Location

Airport or City:

Trip Planner

Search our weather history database for the weather conditions in past years. The results will help you decide how hot, cold, wet, or windy it might be!

Date:

Astronomy

Aug. 17, 2013 Rise Set
Actual Time 5:35 AM AKDT 10:42 PM AKDT
Civil Twilight 4:06 AM AKDT 12:09 AM AKDT
Nautical Twilight Sun does not rise Sun does not rise
Astronomical Twilight Sun does not rise Sun does not rise
Moon 9:05 PM AKDT (8/17) 12:27 AM AKDT (8/17)
Length of Visible Light 20h 03m
Length of Day
17h 07m
Waxing Gibbous, 85% of the Moon is Illuminated
Aug 17
Waxing Gibbous
Aug 20
Full
Aug 28
Last Quarter
Sep 5
New
Sep 12
First Quarter

Hourly Weather History & Observations

Time (AKDT) Temp. Windchill Dew Point Humidity Pressure Visibility Wind Dir Wind Speed Gust Speed Precip Events Conditions
12:16 AM 44.6 °F 39.2 °F 39.2 °F 81% 29.69 in 4.0 mi NE 10.4 mph - N/A   Overcast
12:36 AM 44.6 °F 38.8 °F 39.2 °F 81% 29.69 in 1.8 mi ENE 11.5 mph - N/A   Overcast
12:56 AM 44.6 °F 39.7 °F 39.2 °F 81% 29.69 in 3.0 mi ENE 9.2 mph - N/A   Overcast
1:16 AM 44.6 °F 39.7 °F 39.2 °F 81% 29.69 in 10.0 mi ENE 9.2 mph - N/A   Overcast
1:36 AM 44.6 °F 39.7 °F 39.2 °F 81% 29.70 in 10.0 mi NE 9.2 mph - N/A   Overcast
1:56 AM 44.6 °F 39.2 °F 39.2 °F 81% 29.69 in 9.0 mi ENE 10.4 mph - N/A   Overcast
2:16 AM 44.6 °F 39.2 °F 39.2 °F 81% 29.70 in 7.0 mi NE 10.4 mph - N/A   Overcast
2:36 AM 42.8 °F 37.0 °F 39.2 °F 87% 29.70 in 4.0 mi NE 10.4 mph - N/A   Overcast
2:56 AM 42.8 °F 37.5 °F 39.2 °F 87% 29.69 in 1.5 mi NE 9.2 mph - N/A   Overcast
3:16 AM 42.8 °F 37.0 °F 39.2 °F 87% 29.69 in 8.0 mi NE 10.4 mph - N/A   Overcast
3:36 AM 42.8 °F 37.5 °F 37.4 °F 81% 29.69 in 10.0 mi NE 9.2 mph - N/A   Overcast
3:56 AM 42.8 °F 37.5 °F 37.4 °F 81% 29.69 in 10.0 mi NE 9.2 mph - N/A   Overcast
4:16 AM 42.8 °F 37.5 °F 37.4 °F 81% 29.69 in 10.0 mi NE 9.2 mph - N/A   Overcast
4:36 AM 42.8 °F 38.0 °F 37.4 °F 81% 29.69 in 10.0 mi NE 8.1 mph - N/A   Overcast
4:56 AM 42.8 °F 37.5 °F 37.4 °F 81% 29.69 in 10.0 mi NE 9.2 mph - N/A   Overcast
5:16 AM 42.8 °F 38.0 °F 37.4 °F 81% 29.69 in 10.0 mi NE 8.1 mph - N/A   Overcast
5:36 AM 42.8 °F 37.5 °F 37.4 °F 81% 29.69 in 10.0 mi NE 9.2 mph - N/A   Overcast
5:56 AM 42.8 °F 37.5 °F 37.4 °F 81% 29.69 in 10.0 mi NE 9.2 mph - N/A   Overcast
6:16 AM 42.8 °F 37.0 °F 37.4 °F 81% 29.69 in 10.0 mi NE 10.4 mph - N/A   Overcast
6:36 AM 42.8 °F 38.0 °F 37.4 °F 81% 29.68 in 10.0 mi NE 8.1 mph - N/A   Overcast
6:56 AM 42.8 °F 37.5 °F 37.4 °F 81% 29.69 in 10.0 mi NE 9.2 mph - N/A   Overcast
7:16 AM 42.8 °F 37.0 °F 37.4 °F 81% 29.68 in 10.0 mi NE 10.4 mph - N/A   Overcast
7:36 AM 42.8 °F 37.5 °F 37.4 °F 81% 29.69 in 10.0 mi NE 9.2 mph - N/A   Overcast
7:56 AM 42.8 °F 37.0 °F 37.4 °F 81% 29.69 in 10.0 mi NE 10.4 mph - N/A   Overcast
8:16 AM 42.8 °F 36.6 °F 37.4 °F 81% 29.69 in 5.0 mi NE 11.5 mph - N/A   Overcast
8:36 AM 42.8 °F 37.5 °F 37.4 °F 81% 29.69 in 4.0 mi NE 9.2 mph - N/A   Overcast
8:56 AM 42.8 °F 37.0 °F 37.4 °F 81% 29.69 in 10.0 mi NE 10.4 mph - N/A   Overcast
9:16 AM 42.8 °F 36.6 °F 37.4 °F 81% 29.69 in 10.0 mi NE 11.5 mph - N/A   Overcast
9:36 AM 42.8 °F 37.0 °F 39.2 °F 87% 29.69 in 10.0 mi NE 10.4 mph - N/A   Overcast
9:56 AM 44.6 °F 39.7 °F 39.2 °F 81% 29.69 in 10.0 mi NE 9.2 mph - N/A   Overcast
10:16 AM 44.6 °F 40.7 °F 39.2 °F 81% 29.69 in 10.0 mi NNE 6.9 mph - N/A   Overcast
10:36 AM 44.6 °F 40.2 °F 39.2 °F 81% 29.69 in 10.0 mi NE 8.1 mph - N/A   Overcast
10:56 AM 44.6 °F 39.7 °F 39.2 °F 81% 29.69 in 10.0 mi NNE 9.2 mph - N/A   Overcast
11:16 AM 44.6 °F 39.2 °F 39.2 °F 81% 29.68 in 10.0 mi NNE 10.4 mph - N/A   Overcast
11:36 AM 46.4 °F 41.5 °F 39.2 °F 76% 29.68 in 10.0 mi NNE 10.4 mph - N/A   Overcast
11:56 AM 46.4 °F 41.5 °F 39.2 °F 76% 29.68 in 10.0 mi NE 10.4 mph - N/A   Overcast
12:16 PM 46.4 °F 41.1 °F 39.2 °F 76% 29.68 in 10.0 mi NE 11.5 mph - N/A   Overcast
12:36 PM 46.4 °F 41.1 °F 39.2 °F 76% 29.68 in 10.0 mi NE 11.5 mph - N/A   Overcast
12:56 PM 46.4 °F 41.5 °F 39.2 °F 76% 29.68 in 10.0 mi NE 10.4 mph - N/A   Overcast
1:16 PM 46.4 °F 41.1 °F 39.2 °F 76% 29.68 in 10.0 mi NE 11.5 mph - N/A   Overcast
1:36 PM 46.4 °F 41.5 °F 39.2 °F 76% 29.67 in 10.0 mi NE 10.4 mph - N/A   Overcast
1:56 PM 48.2 °F - 39.2 °F 71% 29.67 in 10.0 mi NE 11.5 mph - N/A   Overcast
2:16 PM 48.2 °F - 39.2 °F 71% 29.67 in 10.0 mi NE 12.7 mph - N/A   Overcast
2:36 PM 48.2 °F - 39.2 °F 71% 29.66 in 10.0 mi NNE 11.5 mph - N/A   Overcast
2:56 PM 48.2 °F - 39.2 °F 71% 29.66 in 10.0 mi NE 11.5 mph - N/A   Overcast
3:16 PM 48.2 °F - 39.2 °F 71% 29.66 in 10.0 mi NE 12.7 mph - N/A   Overcast
3:36 PM 48.2 °F - 41.0 °F 76% 29.66 in 9.0 mi NNE 11.5 mph 16.1 mph N/A   Overcast
3:56 PM 48.2 °F - 41.0 °F 76% 29.66 in 10.0 mi NE 13.8 mph 17.3 mph N/A   Overcast
4:16 PM 48.2 °F - 39.2 °F 71% 29.65 in 10.0 mi NE 13.8 mph 18.4 mph N/A   Overcast
4:36 PM 46.4 °F 40.1 °F 39.2 °F 76% 29.65 in 9.0 mi NE 15.0 mph 20.7 mph N/A   Overcast
4:56 PM 46.4 °F 40.7 °F 41.0 °F 81% 29.65 in 10.0 mi NE 12.7 mph 18.4 mph N/A   Overcast
5:16 PM 46.4 °F 40.4 °F 39.2 °F 76% 29.65 in 10.0 mi NE 13.8 mph 21.9 mph N/A   Overcast
5:36 PM 46.4 °F 40.1 °F 39.2 °F 76% 29.65 in 10.0 mi NE 15.0 mph - N/A   Overcast
5:56 PM 46.4 °F 40.4 °F 39.2 °F 76% 29.65 in 10.0 mi NE 13.8 mph - N/A   Overcast
6:16 PM 46.4 °F 40.4 °F 39.2 °F 76% 29.65 in 10.0 mi ENE 13.8 mph - N/A   Overcast
6:36 PM 44.6 °F 38.1 °F 39.2 °F 81% 29.65 in 10.0 mi ENE 13.8 mph 19.6 mph N/A   Overcast
6:56 PM 44.6 °F 38.4 °F 39.2 °F 81% 29.65 in 10.0 mi ENE 12.7 mph - N/A   Overcast
7:16 PM 44.6 °F 38.1 °F 39.2 °F 81% 29.66 in 10.0 mi NE 13.8 mph - N/A   Overcast
7:36 PM 44.6 °F 38.1 °F 39.2 °F 81% 29.66 in 10.0 mi NE 13.8 mph 18.4 mph N/A   Overcast
7:56 PM 44.6 °F 38.1 °F 37.4 °F 76% 29.66 in 10.0 mi NE 13.8 mph - N/A   Overcast
8:16 PM 44.6 °F 38.8 °F 39.2 °F 81% 29.66 in 4.0 mi NE 11.5 mph - N/A   Overcast
8:36 PM 44.6 °F 39.2 °F 39.2 °F 81% 29.66 in 9.0 mi NE 10.4 mph - N/A   Overcast
8:56 PM 42.8 °F 36.2 °F 37.4 °F 81% 29.66 in 10.0 mi NE 12.7 mph - N/A   Overcast
9:16 PM 42.8 °F 36.2 °F 37.4 °F 81% 29.66 in 10.0 mi NE 12.7 mph - N/A   Overcast
9:36 PM 42.8 °F 36.6 °F 37.4 °F 81% 29.66 in 10.0 mi NE 11.5 mph 17.3 mph N/A   Overcast
9:56 PM 42.8 °F 37.0 °F 37.4 °F 81% 29.66 in 10.0 mi NE 10.4 mph - N/A   Overcast
10:16 PM 42.8 °F 36.6 °F 37.4 °F 81% 29.66 in 10.0 mi NE 11.5 mph - N/A   Overcast
10:36 PM 42.8 °F 38.0 °F 37.4 °F 81% 29.66 in 10.0 mi NNE 8.1 mph - N/A   Overcast
10:56 PM 42.8 °F 37.5 °F 37.4 °F 81% 29.66 in 10.0 mi NE 9.2 mph - N/A   Overcast
11:16 PM 42.8 °F 37.5 °F 37.4 °F 81% 29.66 in 10.0 mi NE 9.2 mph - N/A   Overcast
11:36 PM 42.8 °F 38.6 °F 37.4 °F 81% 29.66 in 10.0 mi NE 6.9 mph - N/A   Overcast
11:56 PM 42.8 °F 37.5 °F 37.4 °F 81% 29.66 in 10.0 mi NE 9.2 mph - N/A   Overcast